Fox Island, WA

11:08 PM PST on February 13, 2016 (GMT -0800)
Tacoma Narrows

Weather History for KTIW - July, 2013

Change the Weather History Date:

Wednesday, July 10, 2013

  Actual Average Record
Temperature  
Mean Temperature 63 °F -  
Max Temperature 72 °F 72 °F 89 °F (2002)
Min Temperature 55 °F 53 °F 52 °F (2008)
Degree Days  
Heating Degree Days 2    
Growing Degree Days 13 (Base 50)    
Moisture  
Dew Point 50 °F    
Average Humidity 71    
Maximum Humidity 88    
Minimum Humidity 51    
Precipitation  
Precipitation 0.00 in - - ()
Sea Level Pressure  
Sea Level Pressure 30.04 in    
Wind  
Wind Speed 6 mph (SW)    
Max Wind Speed 9 mph    
Max Gust Speed -    
Visibility 10 miles    
Events      
Averages and records for this station are not official NWS values.
T = Trace of Precipitation, MM = Missing Value Source: NWS Daily Summary

Daily Weather History Graph

Daily Weather History Graph

Search for Another Location

Airport or City:

Trip Planner

Search our weather history database for the weather conditions in past years. The results will help you decide how hot, cold, wet, or windy it might be!

Date:

Astronomy

Jul. 10, 2013 Rise Set
Actual Time 5:25 AM PDT 9:05 PM PDT
Civil Twilight 4:46 AM PDT 9:44 PM PDT
Nautical Twilight 3:53 AM PDT 10:37 PM PDT
Astronomical Twilight 2:39 AM PDT 11:49 PM PDT
Moon 8:04 AM PDT (7/10) 10:03 PM PDT (7/10)
Length of Visible Light 16h 58m
Length of Day
15h 40m
Waxing Crescent, 6% of the Moon is Illuminated
Jul 10
Waxing Crescent
Jul 15
First Quarter
Jul 22
Full
Jul 29
Last Quarter
Aug 6
New

Hourly Weather History & Observations

Time (PDT) Temp. Dew Point Humidity Pressure Visibility Wind Dir Wind Speed Gust Speed Precip Events Conditions
12:53 AM 62.1 °F 53.1 °F 72% 30.04 in 10.0 mi WSW 6.9 mph - N/A   Clear
1:53 AM 59.0 °F 52.0 °F 78% 30.05 in 10.0 mi West 6.9 mph - N/A   Clear
2:53 AM 57.9 °F 52.0 °F 81% 30.05 in 10.0 mi WSW 3.5 mph - N/A   Clear
3:53 AM 55.9 °F 51.1 °F 84% 30.05 in 10.0 mi SW 4.6 mph - N/A   Clear
4:53 AM 55.0 °F 51.1 °F 86% 30.05 in 10.0 mi Calm Calm - N/A   Scattered Clouds
5:17 AM 55.4 °F 51.8 °F 88% 30.06 in 10.0 mi WSW 4.6 mph - N/A   Mostly Cloudy
5:53 AM 55.0 °F 50.0 °F 83% 30.05 in 10.0 mi SW 5.8 mph - N/A   Overcast
6:53 AM 55.0 °F 50.0 °F 83% 30.06 in 10.0 mi WSW 5.8 mph - N/A   Overcast
7:53 AM 55.0 °F 50.0 °F 83% 30.08 in 10.0 mi SSW 6.9 mph - N/A   Overcast
8:53 AM 55.9 °F 51.1 °F 84% 30.08 in 10.0 mi South 8.1 mph - N/A   Overcast
9:53 AM 55.9 °F 51.1 °F 84% 30.08 in 10.0 mi South 5.8 mph - N/A   Overcast
10:53 AM 57.0 °F 51.1 °F 81% 30.08 in 10.0 mi SSW 5.8 mph - N/A   Mostly Cloudy
11:53 AM 57.9 °F 51.1 °F 78% 30.09 in 10.0 mi SSW 3.5 mph - N/A   Overcast
12:53 PM 60.1 °F 51.1 °F 72% 30.08 in 10.0 mi SSE 5.8 mph - N/A   Mostly Cloudy
1:19 PM 60.8 °F 51.8 °F 72% 30.07 in 10.0 mi SSE 3.5 mph - N/A   Scattered Clouds
1:53 PM 66.0 °F 51.1 °F 59% 30.06 in 10.0 mi Variable 5.8 mph - N/A   Scattered Clouds
2:53 PM 70.0 °F 51.1 °F 51% 30.04 in 10.0 mi NW 4.6 mph - N/A   Partly Cloudy
3:53 PM 66.9 °F 52.0 °F 59% 30.02 in 10.0 mi ENE 6.9 mph - N/A   Clear
4:53 PM 69.1 °F 52.0 °F 54% 30.00 in 10.0 mi ENE 5.8 mph - N/A   Scattered Clouds
5:53 PM 71.1 °F 52.0 °F 51% 29.98 in 10.0 mi Calm Calm - N/A   Scattered Clouds
6:53 PM 69.1 °F 50.0 °F 51% 29.97 in 10.0 mi West 6.9 mph - N/A   Partly Cloudy
7:53 PM 66.0 °F 48.9 °F 54% 29.97 in 10.0 mi SW 6.9 mph - N/A   Clear
8:53 PM 63.0 °F 48.0 °F 58% 29.97 in 10.0 mi SW 5.8 mph - N/A   Clear
9:53 PM 61.0 °F 46.0 °F 58% 29.99 in 10.0 mi SW 8.1 mph - N/A   Mostly Cloudy
10:53 PM 57.9 °F 46.9 °F 67% 30.00 in 10.0 mi WSW 9.2 mph - N/A   Partly Cloudy
11:53 PM 55.9 °F 46.0 °F 69% 30.01 in 10.0 mi SW 3.5 mph - N/A   Clear